Vertical_Velocity
-2 -2 -2 -2 -2 -2 -2 -1 -1 -1 -2 -2 -2 -2 -2 -2 -2 -1 -2 -2 -3 -3 -3 -2 -2 -2 -2 -1 -2 -2 -2 -1 -1 -0 -0 -0 -1 -0 0 1 1 1 -0 -1 -1 -1 -0 1 1 1 0 -0 -1 -0 0 1 1 1 1 1 1 1 2 2 2 1 0 0 -0
-2 -2 -1 -1 -2 -2 -1 -1 -1 -1 -1 -1 -1 -2 -2 -2 -2 -2 -2 -2 -2 -3 -3 -2 -2 -1 -1 -1 -1 -1 -2 -2 -2 -1 -1 -1 -1 -1 -0 0 1 1 0 -0 -0 -0 0 1 1 0 -0 -1 -1 -0 0 1 1 -0 -0 -0 1 2 2 2 2 1 1 0 -0
-2 -2 -2 -2 -2 -2 -2 -2 -1 -1 -1 -1 -1 -1 -1 -2 -2 -2 -2 -1 -1 -2 -2 -3 -2 -2 -1 -1 -1 -1 -1 -2 -2 -2 -2 -1 -1 -1 -1 -0 0 1 1 0 0 1 1 1 -0 -1 -1 -1 -1 -1 -0 0 0 -0 -1 -0 1 1 1 2 2 2 1 -0 -1
-1 -2 -2 -2 -2 -2 -2 -2 -2 -2 -1 -1 -1 -1 -1 -1 -1 -1 -1 -1 -1 -1 -2 -3 -3 -2 -2 -2 -2 -1 -1 -1 -2 -2 -2 -1 -1 -1 -1 -1 -0 0 1 1 1 2 2 1 -0 -1 -1 -1 -2 -1 -1 -1 -1 -1 -1 -0 0 0 1 1 1 1 0 -1 -1
-2 -1 -1 -1 -1 -1 -1 -1 -2 -2 -2 -1 -1 -1 -1 -1 -1 -1 -1 -1 -1 -1 -1 -2 -2 -2 -2 -2 -2 -1 -1 -0 -1 -1 -1 -2 -1 -1 -1 -1 -0 0 1 2 2 2 2 1 -0 -0 0 -1 -1 -1 -1 -1 -1 -1 -0 0 0 0 0 1 1 0 -0 -1 -1
-2 -2 -2 -2 -2 -1 -1 -1 -1 -1 -2 -2 -1 -2 -2 -2 -2 -2 -2 -2 -1 -1 -1 -1 -2 -2 -2 -1 -1 -1 -1 -1 -0 -1 -1 -2 -2 -2 -2 -1 -1 -0 1 1 2 3 2 -0 0 1 2 0 0 0 1 -0 -1 -1 0 1 1 1 1 1 1 0 -0 -1 -1
-2 -2 -2 -2 -2 -2 -1 -1 -1 -1 -1 -1 -1 -1 -2 -2 -2 -2 -1 -1 -1 -1 -1 -1 -2 -2 -2 -2 -2 -2 -2 -1 -1 -1 -1 -1 -2 -2 -2 -2 -1 -0 1 1 2 3 2 -0 2 3 3 1 0 0 1 0 -1 -1 0 2 2 2 2 2 1 1 0 -0 -0
-1 -1 -1 -1 -1 -1 -1 -1 -1 -1 -2 -1 -1 -2 -2 -2 -2 -2 -2 -1 -1 -2 -2 -2 -1 -1 -2 -2 -2 -2 -2 -2 -1 -1 -1 -1 -2 -2 -2 -2 -1 0 1 2 3 2 1 1 5 6 3 -0 -2 -2 -0 0 0 0 1 2 3 3 2 2 2 1 1 1 0
-1 -1 -1 -1 -1 -1 -1 -1 -1 -1 -1 -1 -1 -1 -2 -2 -2 -2 -2 -2 -2 -2 -2 -2 -1 -1 -1 -1 -2 -2 -2 -2 -2 -1 -1 -1 -1 -2 -2 -2 -1 -0 1 2 2 1 1 4 7 6 3 -1 -3 -3 -1 0 1 1 2 3 3 3 3 2 2 2 2 1 1
-1 -1 -1 -1 -1 -1 -0 -0 -0 -0 -1 -1 -1 -1 -1 -1 -2 -2 -2 -2 -2 -1 -1 -2 -2 -1 -1 -1 -1 -2 -2 -2 -2 -2 -1 -1 -1 -2 -2 -3 -2 -1 0 1 1 -0 1 5 7 7 5 2 -1 -2 -1 0 1 2 3 3 3 3 3 3 2 2 2 2 1
-1 -2 -2 -2 -1 -1 -1 -0 -0 -0 -0 -1 -0 -0 -0 -1 -1 -1 -1 -1 -1 -1 -1 -1 -2 -2 -2 -1 -1 -1 -2 -2 -2 -2 -2 -2 -1 -2 -2 -2 -2 -1 -1 0 0 -0 1 6 8 8 7 5 2 1 1 2 2 3 3 2 2 2 2 3 2 2 2 2 2
-2 -2 -2 -2 -1 -1 -1 -1 -0 -0 -0 -1 -1 -0 -0 -0 -1 -1 -1 -1 -0 -0 -0 -0 -1 -2 -2 -2 -2 -1 -1 -2 -2 -2 -2 -2 -2 -2 -1 -1 -1 -1 -0 -0 0 1 3 8 8 7 6 6 5 4 3 3 3 3 2 1 1 1 2 2 2 2 2 2 2
-2 -2 -2 -2 -2 -2 -2 -1 -1 -0 -0 -1 -1 -1 -0 0 -0 -1 -1 -1 -0 -0 -0 0 -0 -1 -2 -3 -2 -2 -2 -2 -2 -2 -2 -2 -2 -2 -2 -1 -1 -0 -0 0 1 2 5 8 7 6 5 5 5 4 3 2 2 1 0 0 1 1 1 1 1 1 2 2 2
-1 -1 -1 -2 -2 -2 -2 -2 -1 -1 -1 -1 -1 -1 -0 -0 -0 -0 -1 -1 -1 -1 -1 -1 -0 -1 -1 -2 -3 -2 -2 -2 -2 -2 -2 -2 -2 -2 -2 -1 -0 -0 0 1 1 4 6 7 6 5 5 5 3 2 0 1 1 -0 -1 -2 -1 -0 -0 0 0 0 1 1 2
-0 -0 -1 -1 -2 -2 -2 -2 -2 -1 -1 -1 -1 -1 -1 -0 -0 -0 -1 -1 -1 -1 -1 -1 -1 -1 -0 -1 -2 -2 -2 -2 -2 -2 -2 -1 -1 -1 -1 -0 -0 -0 -0 1 3 5 6 6 4 4 5 7 5 2 0 1 -0 -2 -3 -3 -2 -2 -1 -1 -0 -0 0 1 2
1 0 -0 -1 -1 -1 -2 -2 -2 -2 -2 -1 -1 -1 -1 -1 -0 -0 -0 -2 -2 -1 -1 -1 -1 -1 -1 -0 -1 -2 -2 -2 -2 -2 -2 -2 -1 -1 -0 1 0 -0 -0 2 5 6 5 5 3 4 7 11 10 6 1 -0 -3 -4 -5 -4 -3 -2 -2 -1 -1 -0 -0 0 1
1 1 1 0 -0 -0 -1 -1 -1 -1 -1 -1 -1 -1 -1 -1 -1 -1 -0 -1 -2 -2 -1 -0 -0 -1 -1 -1 -1 -1 -2 -2 -2 -2 -3 -2 -2 -1 -0 1 1 -0 0 3 6 5 3 3 3 6 10 13 10 5 1 -3 -5 -7 -7 -5 -3 -2 -2 -1 -1 -1 -1 0 1
1 1 1 1 0 -0 -0 -0 -1 -1 -1 -1 -1 -1 -1 -1 -1 -1 -1 -0 -1 -2 -2 -1 -0 -0 -1 -1 -1 -1 -2 -2 -2 -3 -3 -3 -2 -1 0 2 2 1 2 5 5 3 1 1 4 7 10 10 6 2 -1 -4 -6 -7 -6 -4 -3 -2 -1 -1 -1 -1 -1 -0 1
-0 -0 0 -0 -0 -0 -0 -0 -0 -0 -0 -0 -1 -1 -1 -1 -1 -1 -1 -1 -0 -1 -2 -2 -1 -0 0 -0 -0 -1 -1 -1 -2 -3 -3 -3 -2 -1 1 3 3 3 4 6 5 3 1 1 3 6 9 8 4 1 -2 -3 -4 -5 -4 -3 -2 -1 -1 -0 -1 -1 -1 -0 1
-1 -1 -1 -1 -1 -1 -1 -0 -0 -0 -0 -0 -0 -1 -1 -0 -1 -1 -1 -1 -1 -1 -1 -2 -1 -1 -0 0 0 0 -0 -1 -2 -2 -3 -3 -2 -1 1 4 4 5 6 5 4 3 2 1 2 5 7 6 2 -1 -3 -3 -3 -3 -2 -2 -1 -1 -0 0 0 -0 -0 0 1
-2 -2 -1 -1 -1 -1 -1 -1 -0 -0 -0 -0 0 0 0 0 -0 -0 -0 -1 -1 -1 -1 -1 -1 -1 -1 -0 0 0 0 0 -1 -2 -3 -3 -2 -1 1 3 4 7 9 5 4 3 2 1 1 2 4 4 -1 -3 -3 -3 -2 -1 -1 -1 -1 -1 -0 1 1 1 0 1 2
-1 -1 -1 -1 -1 -1 -1 -1 -0 -0 0 0 1 1 1 1 1 0 0 -0 -0 -0 -0 -0 -0 -0 -0 -0 -0 -0 0 0 0 -1 -2 -3 -3 -1 1 3 5 8 10 6 5 4 2 2 1 1 2 1 -2 -3 -3 -2 -1 -0 -0 -1 -1 -0 0 1 1 1 1 1 1
-1 -1 -1 -1 -0 -0 -0 0 0 1 1 1 1 1 1 1 1 1 1 1 0 0 0 0 0 0 0 0 0 -0 -0 -0 0 -0 -1 -2 -2 -1 2 4 5 7 8 8 7 4 1 -2 -3 -2 -1 -2 -3 -4 -4 -2 -0 0 -0 -1 -0 1 1 1 1 1 0 -0 0
-0 -0 -0 -0 0 1 1 1 1 1 1 1 1 1 1 1 0 1 1 1 1 1 1 1 1 1 1 1 1 1 -0 -1 -1 -1 -1 -1 -1 -0 2 5 5 6 6 8 8 5 1 -4 -5 -5 -4 -5 -5 -4 -2 0 2 1 -0 -3 -0 1 2 1 1 0 -0 -1 -0
1 1 1 1 1 1 1 1 1 1 1 1 1 1 0 0 0 1 1 1 1 1 1 0 1 1 1 1 1 1 1 -0 -1 -2 -2 -1 -0 1 3 6 6 6 6 6 7 6 3 -0 -3 0 3 -0 -3 -2 1 3 5 3 -1 -4 -0 1 2 1 1 1 -0 -1 -0
2 2 2 2 1 1 0 0 1 1 0 -0 -0 -0 -0 0 0 1 1 0 0 0 0 0 0 0 0 0 1 1 1 1 -1 -2 -2 -2 -1 1 3 7 9 9 9 9 5 3 1 -4 4 16 20 5 2 2 4 6 11 7 -0 -5 -1 0 1 1 1 1 0 -0 -0
3 3 2 2 1 0 -0 0 -0 -0 -0 -1 -1 -0 0 0 0 0 -0 -1 -1 -0 0 -0 -1 -1 -1 -1 -0 0 0 0 -0 -1 -2 -1 -1 0 3 8 11 14 15 12 5 0 -3 -6 24 32 23 4 4 5 7 12 16 9 0 -4 -1 0 1 1 1 1 1 -0 -0
2 1 1 -0 -1 -1 -0 -1 -1 -1 -1 -1 -0 0 0 0 -0 -1 -1 -1 -1 -1 -2 -2 -2 -2 -2 -2 -1 -1 -1 -1 -1 -1 -1 -0 -0 1 3 9 11 15 16 13 3 -4 -4 6 47 42 17 2 3 6 9 15 15 8 1 -2 -0 1 2 3 3 2 -0 -0 -0
0 -1 -1 -2 -1 -1 -2 -2 -2 -1 -1 -0 0 0 0 -0 -1 -2 -2 -2 -2 -3 -4 -5 -4 -3 -3 -3 -2 -2 -1 -1 -1 -1 -0 1 1 2 5 9 11 15 15 10 1 -4 2 22 51 40 16 1 3 5 9 13 10 5 0 -1 1 3 4 4 5 2 -1 -0 -1
-1 -2 -2 -2 -2 -2 -2 -1 -1 -0 -0 -0 -0 -0 -1 -2 -2 -2 -3 -3 -4 -4 -4 -4 -3 -3 -2 -2 -2 -2 -2 -1 -1 -0 0 1 1 2 5 8 11 14 14 7 0 2 11 26 34 30 19 3 3 4 6 8 6 3 -0 -1 3 6 6 4 4 2 -1 -0 -1
-2 -2 -2 -2 -2 -1 -1 -0 0 0 0 -0 -0 -1 -2 -2 -2 -2 -2 -3 -3 -3 -3 -3 -2 -1 -0 0 -0 -0 -0 -1 -0 0 1 1 1 2 4 8 10 12 11 6 -2 5 18 25 20 15 11 4 4 4 5 6 4 2 -0 -0 5 8 7 4 2 0 -1 -0 -0
-2 -1 -1 -1 -1 -0 0 1 0 0 0 -0 -1 -1 -1 -1 -0 -0 -0 -1 -3 -3 -4 -4 -3 -2 -1 -0 0 0 0 0 1 2 2 2 1 1 3 7 10 11 9 4 -3 10 27 30 9 1 0 2 5 6 5 5 3 1 0 1 6 9 9 6 4 1 -1 1 -0
-1 -0 -0 -0 0 1 1 1 0 0 0 0 -0 -0 -0 -0 1 1 0 -1 -3 -3 -4 -4 -4 -3 -2 -2 -1 -0 0 1 2 3 3 2 1 1 3 7 9 9 8 4 -1 15 35 41 9 -2 -1 3 6 7 6 5 3 2 1 2 8 12 13 12 12 7 2 1 1
0 1 1 1 1 1 1 0 0 0 0 1 1 1 0 0 0 -0 -1 -2 -2 -2 -2 -2 -2 -1 -0 0 0 0 1 2 3 3 3 2 2 2 3 6 7 8 8 6 4 20 38 45 10 -2 -1 3 5 6 6 4 3 1 1 3 10 13 14 14 16 14 11 6 4
0 1 1 2 1 1 0 -0 -0 0 0 0 1 1 1 1 -0 -1 -1 -2 -2 -2 -1 -1 -0 0 0 1 1 1 1 2 3 3 2 2 2 2 3 4 5 7 8 7 7 21 36 40 13 2 -0 2 3 4 4 3 1 0 0 3 8 11 12 8 4 7 12 13 8
1 1 1 1 1 0 -0 -1 -1 -1 -0 -0 -0 0 0 1 1 0 -0 -2 -2 -2 -2 -1 -2 -2 -1 -1 -0 0 1 2 2 2 2 2 1 1 1 2 3 5 6 7 6 19 33 37 18 6 0 1 2 2 2 0 0 0 1 3 6 8 8 4 -2 -2 2 9 7
1 1 0 -0 -0 -1 -1 -1 -1 -2 -2 -1 -1 -1 -1 -1 -0 0 -0 -2 -3 -3 -2 -2 -3 -3 -2 -1 -0 1 2 2 2 2 1 1 -1 -1 -1 -0 1 2 4 5 3 15 30 37 23 9 0 1 1 1 -1 -2 -1 -0 1 3 6 6 5 4 2 1 1 2 2
1 0 -1 -1 -1 -1 -1 -1 -1 -2 -2 -2 -1 -0 -1 -1 -1 -0 0 -1 -3 -3 -3 -3 -4 -3 -1 0 1 2 2 1 1 1 1 -0 -2 -3 -3 -2 -1 0 2 2 -0 8 23 37 26 10 -2 -1 0 -0 -2 -3 -2 -2 -0 2 5 4 3 3 3 3 3 2 2
-0 -1 -1 -2 -2 -1 -0 -0 -0 -1 -1 -2 -1 -1 -1 -1 -1 0 1 1 -1 -2 -2 -3 -3 -2 -0 1 2 2 2 1 1 1 0 -0 -1 -2 -2 -2 -2 -2 -1 0 -1 5 16 31 25 12 -0 -4 -1 -0 -2 -3 -3 -3 -2 -2 1 2 1 -0 0 1 1 2 2
-1 -1 -1 -2 -1 -1 -1 -0 -0 -0 -1 -1 -2 -2 -2 -1 -1 0 2 3 1 -0 -1 -2 -2 -0 1 3 3 2 1 0 0 0 0 1 0 -0 -1 -1 -2 -2 -2 -2 -1 1 7 17 18 13 5 -5 -1 1 -0 -2 -3 -3 -3 -3 -1 -0 -1 -2 -3 -3 -3 -2 -0
-2 -2 -1 -1 -0 -1 -1 -1 -1 -1 -1 -2 -2 -2 -2 -1 -1 0 2 3 3 2 1 -1 0 2 3 5 3 2 0 -1 -1 -1 -0 1 1 1 1 -0 -1 -1 -1 -2 -2 -2 0 5 6 6 3 -4 -1 1 1 -1 -3 -3 -2 -2 -1 0 1 -1 -3 -5 -5 -5 -3
Height
3030 3027 3024 3022 3020 3017 3015 3013 3010 3008 3006 3004 3002 3000 2998 2996 2994 2992 2990 2989 2987 2985 2983 2982 2980 2979 2977 2975 2974 2972 2971 2969 2967 2966 2964 2962 2961 2959 2957 2956 2954 2953 2951 2950 2949 2948 2947 2946 2946 2945 2945 2944 2943 2943 2943 2942 2942 2942 2942 2943 2942 2942 2943 2943 2943 2943 2943 2943 2943
3028 3025 3023 3020 3018 3016 3014 3011 3009 3007 3005 3002 3000 2998 2996 2994 2992 2990 2989 2987 2985 2983 2981 2980 2978 2977 2975 2974 2972 2970 2969 2967 2965 2964 2962 2960 2959 2957 2955 2954 2952 2950 2949 2948 2947 2946 2945 2945 2944 2943 2942 2942 2941 2941 2941 2940 2940 2940 2940 2940 2940 2940 2940 2941 2941 2941 2941 2941 2941
3026 3024 3021 3019 3016 3014 3012 3010 3008 3005 3003 3001 2999 2997 2995 2992 2990 2989 2987 2985 2983 2981 2980 2978 2976 2975 2974 2972 2970 2969 2967 2965 2964 2962 2960 2959 2957 2955 2954 2952 2950 2949 2947 2946 2945 2944 2943 2942 2942 2941 2940 2940 2939 2939 2939 2939 2939 2938 2938 2938 2939 2939 2939 2939 2939 2939 2939 2939 2939
3025 3022 3020 3017 3015 3012 3010 3008 3006 3004 3001 3000 2997 2995 2993 2991 2989 2987 2985 2983 2982 2980 2978 2976 2975 2973 2971 2970 2969 2967 2965 2964 2962 2960 2959 2957 2955 2953 2952 2950 2948 2946 2945 2944 2943 2942 2941 2940 2940 2939 2939 2938 2937 2937 2937 2936 2936 2936 2936 2936 2937 2937 2937 2937 2937 2937 2937 2937 2937
3023 3020 3018 3015 3013 3011 3008 3006 3004 3002 3000 2998 2995 2994 2991 2989 2987 2985 2983 2982 2980 2978 2976 2975 2973 2971 2970 2968 2967 2965 2964 2962 2960 2959 2957 2955 2953 2952 2950 2948 2946 2945 2943 2942 2941 2940 2940 2939 2938 2938 2937 2936 2936 2935 2935 2935 2935 2935 2935 2935 2935 2935 2935 2935 2935 2935 2935 2935 2935
3021 3019 3016 3014 3011 3009 3007 3005 3002 3000 2998 2996 2994 2992 2990 2988 2985 2984 2982 2980 2978 2976 2975 2973 2971 2970 2968 2966 2965 2964 2962 2960 2959 2957 2955 2953 2952 2950 2948 2946 2945 2943 2941 2940 2939 2938 2938 2937 2937 2936 2936 2935 2934 2934 2933 2933 2933 2933 2933 2933 2933 2933 2933 2933 2933 2933 2933 2933 2933
3019 3017 3015 3012 3010 3008 3005 3003 3001 2999 2996 2995 2992 2990 2988 2986 2984 2982 2980 2978 2976 2975 2973 2971 2970 2968 2966 2965 2963 2961 2960 2959 2957 2955 2953 2952 2950 2948 2946 2945 2943 2941 2939 2938 2937 2936 2936 2936 2936 2935 2935 2933 2933 2932 2932 2931 2931 2931 2931 2931 2931 2931 2931 2931 2931 2931 2931 2931 2931
3018 3015 3013 3011 3008 3006 3004 3002 2999 2997 2995 2993 2991 2989 2987 2985 2982 2980 2979 2977 2975 2973 2971 2969 2968 2966 2964 2963 2961 2960 2958 2956 2955 2953 2952 2950 2948 2946 2945 2943 2941 2940 2938 2936 2935 2935 2935 2935 2935 2935 2933 2932 2931 2930 2930 2930 2930 2930 2930 2930 2930 2930 2930 2930 2930 2930 2930 2929 2929
3017 3014 3012 3010 3007 3005 3002 3000 2998 2996 2994 2991 2989 2987 2985 2983 2981 2979 2977 2975 2973 2971 2969 2967 2966 2964 2962 2961 2959 2958 2956 2955 2953 2951 2950 2948 2946 2945 2943 2941 2940 2938 2936 2935 2934 2934 2934 2934 2934 2933 2932 2930 2930 2929 2929 2929 2929 2929 2929 2929 2928 2928 2928 2928 2928 2928 2928 2928 2927
3015 3013 3010 3008 3005 3003 3001 2999 2996 2994 2992 2990 2988 2985 2983 2981 2979 2977 2975 2973 2971 2969 2967 2965 2964 2962 2960 2959 2957 2956 2954 2952 2951 2950 2948 2946 2945 2943 2942 2940 2938 2936 2935 2933 2932 2932 2933 2934 2933 2932 2930 2929 2928 2928 2928 2928 2928 2927 2927 2927 2927 2926 2926 2926 2926 2926 2926 2926 2926
3014 3011 3009 3006 3004 3002 3000 2997 2995 2993 2990 2988 2986 2984 2982 2980 2977 2975 2973 2971 2970 2968 2966 2964 2962 2960 2959 2957 2955 2954 2952 2950 2949 2947 2946 2944 2943 2941 2940 2938 2936 2935 2933 2932 2931 2932 2932 2933 2932 2931 2930 2928 2927 2927 2927 2927 2926 2926 2926 2925 2925 2925 2925 2925 2925 2925 2924 2924 2924
3012 3010 3007 3005 3003 3000 2998 2996 2994 2991 2989 2987 2984 2982 2980 2978 2976 2974 2971 2970 2968 2966 2964 2962 2960 2958 2956 2955 2953 2952 2950 2949 2947 2945 2944 2942 2941 2940 2938 2937 2935 2933 2932 2930 2930 2931 2931 2931 2931 2930 2929 2927 2927 2926 2926 2925 2925 2925 2924 2924 2924 2923 2923 2923 2923 2923 2923 2923 2923
3011 3009 3006 3004 3001 2999 2996 2994 2992 2990 2987 2985 2983 2980 2978 2976 2974 2972 2970 2968 2966 2964 2962 2960 2958 2956 2954 2953 2951 2950 2948 2947 2945 2944 2942 2940 2939 2938 2937 2935 2934 2932 2930 2930 2929 2930 2930 2930 2930 2929 2928 2927 2926 2925 2924 2924 2923 2923 2922 2922 2922 2922 2922 2922 2921 2921 2921 2921 2921
3010 3007 3005 3002 3000 2997 2995 2992 2990 2988 2985 2983 2981 2979 2976 2974 2972 2970 2968 2965 2964 2962 2960 2958 2956 2954 2952 2950 2949 2947 2946 2945 2943 2942 2940 2939 2938 2936 2935 2934 2932 2930 2929 2928 2928 2929 2929 2929 2928 2928 2927 2926 2925 2924 2923 2922 2922 2921 2921 2920 2920 2920 2920 2920 2920 2920 2920 2920 2920
3009 3006 3004 3001 2998 2996 2993 2991 2988 2986 2984 2981 2979 2977 2974 2972 2970 2968 2966 2964 2962 2960 2958 2956 2954 2952 2950 2949 2947 2945 2944 2943 2941 2940 2939 2937 2936 2935 2934 2932 2931 2929 2928 2927 2927 2928 2928 2928 2927 2927 2926 2925 2924 2923 2922 2921 2920 2920 2920 2920 2920 2919 2919 2919 2919 2918 2918 2918 2918
3008 3005 3002 3000 2997 2995 2992 2989 2987 2984 2982 2980 2977 2975 2973 2970 2968 2966 2964 2962 2960 2958 2956 2954 2952 2950 2949 2947 2945 2943 2942 2940 2939 2938 2937 2936 2935 2933 2932 2931 2930 2928 2927 2926 2926 2927 2926 2926 2926 2926 2925 2924 2923 2921 2920 2920 2919 2919 2919 2919 2919 2918 2918 2917 2917 2917 2917 2916 2916
3006 3004 3001 2999 2996 2993 2990 2988 2985 2983 2980 2978 2975 2973 2971 2969 2966 2964 2962 2960 2958 2955 2954 2952 2950 2948 2946 2945 2943 2941 2940 2939 2937 2936 2935 2934 2933 2932 2931 2930 2928 2927 2926 2925 2925 2925 2925 2925 2925 2925 2924 2923 2921 2920 2919 2919 2919 2919 2919 2918 2918 2917 2916 2916 2916 2915 2915 2915 2915
3005 3003 3000 2997 2995 2992 2989 2986 2984 2981 2979 2976 2974 2971 2969 2967 2965 2962 2960 2958 2956 2954 2951 2950 2948 2946 2944 2943 2941 2939 2938 2936 2935 2934 2933 2932 2931 2930 2929 2928 2927 2926 2925 2925 2924 2924 2924 2924 2924 2923 2923 2921 2920 2919 2918 2918 2918 2918 2918 2917 2916 2916 2915 2915 2915 2914 2914 2914 2913
3004 3001 2998 2995 2993 2990 2988 2985 2982 2980 2977 2975 2972 2970 2967 2965 2963 2960 2958 2956 2954 2951 2949 2947 2945 2944 2942 2940 2939 2937 2936 2935 2933 2932 2931 2930 2930 2929 2928 2927 2926 2925 2925 2924 2923 2923 2923 2923 2922 2922 2921 2920 2919 2918 2918 2918 2917 2917 2916 2916 2915 2915 2915 2914 2914 2913 2913 2912 2912
3002 2999 2997 2994 2991 2989 2986 2983 2981 2978 2976 2973 2971 2968 2966 2963 2961 2959 2956 2954 2951 2949 2947 2945 2943 2941 2940 2938 2936 2935 2934 2932 2931 2930 2929 2929 2928 2927 2926 2926 2925 2925 2924 2923 2922 2922 2921 2921 2921 2920 2920 2919 2918 2917 2917 2917 2916 2916 2915 2915 2915 2914 2914 2913 2913 2912 2912 2911 2911
3000 2998 2995 2992 2990 2987 2985 2982 2979 2977 2974 2972 2969 2966 2964 2961 2959 2957 2954 2952 2949 2947 2945 2942 2940 2939 2937 2935 2934 2932 2931 2930 2929 2928 2927 2927 2926 2925 2925 2925 2925 2924 2924 2922 2922 2921 2920 2920 2920 2919 2919 2918 2917 2917 2917 2916 2915 2915 2915 2914 2914 2913 2913 2913 2912 2911 2911 2910 2910
2999 2996 2994 2991 2988 2986 2983 2980 2978 2975 2973 2970 2968 2965 2962 2960 2957 2955 2952 2950 2947 2945 2942 2940 2938 2936 2934 2932 2931 2930 2929 2928 2927 2926 2925 2925 2924 2924 2924 2924 2924 2923 2923 2922 2921 2920 2920 2919 2919 2919 2918 2917 2917 2917 2916 2915 2915 2915 2914 2914 2913 2913 2912 2912 2911 2910 2910 2909 2909
2998 2995 2992 2990 2987 2985 2982 2979 2977 2974 2971 2969 2966 2963 2960 2958 2955 2952 2950 2947 2945 2942 2940 2938 2935 2934 2931 2930 2928 2927 2926 2925 2925 2924 2923 2923 2922 2922 2922 2922 2922 2922 2922 2921 2920 2919 2918 2918 2918 2917 2917 2917 2917 2916 2915 2915 2915 2914 2913 2913 2912 2912 2911 2911 2910 2910 2909 2908 2907
2996 2994 2991 2989 2986 2984 2981 2978 2975 2972 2970 2967 2964 2961 2958 2955 2953 2950 2947 2945 2942 2940 2938 2935 2933 2931 2929 2927 2926 2925 2924 2923 2922 2921 2921 2921 2920 2920 2921 2921 2921 2921 2921 2920 2919 2918 2917 2917 2917 2916 2916 2917 2915 2915 2915 2914 2914 2913 2912 2911 2911 2911 2911 2910 2909 2908 2908 2907 2906
2995 2993 2990 2988 2985 2982 2979 2976 2974 2971 2968 2965 2962 2959 2956 2953 2950 2948 2945 2943 2940 2938 2935 2933 2931 2929 2927 2925 2924 2922 2921 2920 2920 2919 2919 2919 2919 2919 2919 2920 2920 2920 2920 2920 2919 2918 2917 2917 2917 2917 2917 2916 2914 2914 2914 2913 2912 2911 2910 2910 2910 2910 2910 2909 2908 2907 2906 2906 2905
2995 2992 2990 2986 2984 2981 2978 2975 2972 2969 2966 2963 2960 2957 2954 2951 2949 2946 2943 2941 2938 2936 2933 2931 2929 2927 2925 2923 2921 2920 2919 2918 2918 2917 2917 2917 2917 2917 2918 2919 2919 2920 2920 2919 2918 2917 2917 2916 2917 2918 2916 2913 2912 2912 2912 2912 2912 2910 2909 2909 2909 2909 2909 2908 2907 2906 2905 2905 2904
2994 2991 2988 2985 2982 2979 2976 2973 2970 2967 2964 2961 2958 2955 2953 2950 2947 2944 2941 2939 2936 2934 2932 2929 2927 2925 2923 2921 2920 2919 2918 2917 2916 2915 2915 2915 2915 2915 2916 2917 2918 2919 2918 2918 2917 2916 2916 2916 2919 2917 2914 2911 2911 2911 2911 2912 2911 2910 2908 2908 2908 2908 2908 2907 2906 2905 2904 2903 2903
2992 2990 2986 2984 2981 2978 2975 2972 2969 2966 2963 2960 2957 2954 2951 2948 2945 2943 2940 2937 2935 2932 2930 2928 2926 2924 2922 2920 2919 2917 2916 2915 2914 2914 2913 2913 2913 2914 2915 2916 2917 2917 2917 2916 2916 2915 2915 2916 2919 2916 2911 2910 2910 2910 2911 2911 2910 2909 2908 2908 2908 2907 2907 2906 2905 2904 2902 2902 2901
2991 2988 2985 2982 2980 2976 2974 2970 2968 2965 2962 2959 2955 2953 2950 2947 2944 2941 2939 2936 2934 2931 2929 2927 2925 2923 2921 2919 2918 2916 2915 2914 2913 2913 2912 2912 2912 2913 2914 2915 2916 2916 2916 2915 2915 2915 2915 2917 2918 2915 2911 2909 2909 2910 2910 2910 2909 2908 2908 2908 2908 2907 2906 2905 2905 2903 2901 2901 2900
2990 2986 2984 2981 2978 2975 2972 2970 2966 2964 2960 2957 2955 2951 2948 2945 2943 2940 2938 2935 2933 2930 2928 2926 2924 2922 2920 2919 2917 2915 2914 2913 2912 2912 2911 2911 2911 2911 2912 2914 2915 2915 2914 2914 2914 2915 2916 2916 2915 2913 2911 2910 2909 2909 2909 2909 2909 2909 2908 2908 2908 2907 2905 2904 2904 2902 2900 2900 2899
2988 2985 2983 2980 2977 2975 2972 2969 2966 2963 2960 2956 2953 2950 2947 2944 2942 2939 2937 2935 2933 2930 2928 2926 2924 2922 2920 2918 2916 2915 2914 2912 2912 2911 2910 2910 2910 2910 2911 2913 2914 2914 2914 2913 2913 2915 2916 2915 2912 2911 2910 2910 2909 2909 2909 2909 2909 2909 2909 2909 2908 2907 2905 2903 2903 2901 2899 2899 2898
2987 2985 2982 2979 2976 2974 2971 2968 2965 2962 2959 2955 2952 2949 2946 2944 2942 2940 2937 2935 2933 2930 2928 2926 2924 2921 2920 2917 2916 2914 2913 2912 2911 2910 2910 2910 2909 2910 2910 2912 2913 2913 2913 2913 2913 2915 2916 2915 2911 2909 2909 2909 2909 2909 2909 2909 2909 2909 2909 2909 2908 2907 2905 2904 2902 2900 2899 2898 2898
2987 2984 2981 2978 2976 2973 2970 2967 2964 2961 2957 2954 2951 2948 2946 2944 2941 2940 2937 2935 2933 2930 2928 2926 2923 2921 2919 2917 2915 2914 2913 2911 2911 2910 2910 2909 2909 2909 2910 2911 2912 2912 2912 2912 2912 2914 2915 2914 2910 2908 2909 2909 2908 2908 2908 2909 2909 2909 2909 2909 2908 2907 2905 2904 2903 2901 2899 2898 2897
2986 2983 2980 2978 2975 2972 2969 2966 2963 2960 2956 2953 2950 2948 2945 2943 2941 2939 2937 2935 2933 2931 2928 2926 2924 2921 2919 2917 2915 2914 2913 2912 2911 2910 2910 2909 2909 2909 2910 2910 2910 2911 2911 2911 2912 2914 2915 2913 2909 2908 2908 2908 2908 2908 2908 2908 2908 2909 2909 2909 2908 2906 2905 2903 2903 2902 2901 2899 2897
2985 2982 2980 2977 2974 2971 2968 2965 2962 2959 2955 2953 2950 2948 2945 2943 2941 2939 2937 2935 2933 2931 2929 2927 2925 2922 2920 2918 2916 2915 2913 2912 2911 2911 2910 2910 2909 2909 2909 2910 2910 2910 2911 2911 2911 2914 2915 2913 2909 2908 2908 2908 2907 2907 2908 2908 2908 2908 2908 2908 2907 2905 2904 2901 2900 2901 2901 2900 2898
2984 2981 2979 2976 2973 2970 2967 2964 2960 2958 2955 2952 2950 2947 2945 2943 2941 2939 2937 2935 2933 2931 2929 2927 2925 2923 2921 2919 2917 2915 2914 2913 2912 2911 2910 2910 2909 2909 2909 2909 2910 2910 2910 2910 2910 2912 2914 2913 2910 2908 2908 2907 2907 2907 2907 2907 2908 2908 2908 2908 2906 2905 2903 2901 2900 2899 2899 2900 2899
2983 2980 2977 2975 2972 2969 2966 2963 2960 2957 2954 2952 2949 2947 2945 2942 2941 2939 2937 2935 2933 2931 2930 2928 2925 2924 2921 2920 2918 2916 2915 2914 2913 2912 2911 2910 2910 2910 2909 2909 2910 2910 2910 2910 2910 2911 2913 2913 2910 2908 2907 2907 2907 2907 2907 2907 2907 2908 2908 2907 2906 2905 2903 2902 2900 2899 2898 2898 2898
2982 2980 2977 2974 2971 2968 2965 2963 2960 2957 2954 2951 2949 2946 2944 2942 2940 2939 2937 2935 2933 2932 2930 2928 2926 2924 2923 2921 2920 2918 2916 2915 2914 2913 2912 2911 2911 2910 2910 2910 2910 2910 2910 2910 2910 2911 2913 2912 2910 2908 2907 2907 2907 2907 2907 2907 2907 2907 2907 2907 2905 2904 2903 2902 2901 2900 2899 2898 2898
2982 2979 2976 2973 2971 2968 2965 2963 2960 2957 2954 2951 2948 2946 2943 2941 2940 2938 2937 2935 2934 2932 2930 2929 2927 2925 2924 2923 2921 2920 2918 2916 2915 2915 2914 2913 2912 2911 2911 2910 2910 2910 2910 2910 2910 2911 2912 2911 2909 2907 2907 2906 2906 2906 2906 2906 2906 2906 2906 2906 2905 2904 2903 2902 2901 2900 2900 2899 2899
2981 2979 2976 2973 2970 2968 2965 2963 2960 2957 2954 2950 2947 2945 2943 2941 2940 2938 2937 2936 2935 2933 2931 2930 2928 2927 2925 2924 2923 2921 2920 2918 2917 2916 2915 2915 2914 2913 2912 2912 2911 2910 2910 2910 2910 2910 2910 2909 2908 2907 2907 2906 2906 2906 2906 2906 2906 2906 2906 2905 2905 2904 2903 2902 2901 2901 2900 2900 2899
2981 2979 2976 2974 2971 2968 2965 2963 2960 2957 2953 2950 2947 2945 2943 2941 2940 2938 2937 2936 2935 2934 2932 2931 2930 2928 2927 2925 2924 2922 2921 2920 2919 2917 2916 2916 2915 2915 2914 2913 2912 2911 2911 2910 2910 2910 2910 2909 2909 2908 2907 2906 2906 2906 2906 2905 2905 2905 2905 2905 2904 2903 2903 2902 2901 2901 2900 2900 2899